Home   Weather   Camrose   Past weeks

Flag for Canada Past Weather in Camrose, Alberta, Canada — Yesterday and Last 2 Weeks

Now
59 °F

Passing clouds.


Feels Like: 58 °F
Forecast: 48 / 79 °F
Wind: 6 mph from South

Location: Edmonton International

Current Time: Jul 25, 2017 at 11:00:50 pm

Latest Report: Jul 25, 2017 at 10:00 pm


Visibility: 15 mi

Pressure: 30.06 "Hg (27.52 "Hg at 744m altitude)

Humidity: 77%

Dew Point: 52 °F

Location of CamroseLocation

Past Weather in Camrose — Graph

°F

Camrose Temperature Yesterday

Maximum temperature yesterday: 57 °F (at 7:00 pm)
Minimum temperature yesterday: 45 °F (at 6:00 am)
Average temperature yesterday: 51 °F

High & Low Weather Summary for the Past Weeks

 TemperatureHumidityPressure
High82 °F (Jul 13, 4:00 pm)100% (Jul 13, 3:55 am)30.19 "Hg (Jul 13, 3:55 am)
Low43 °F (Jul 18, 2:00 am)38% (Jul 18, 5:00 pm)29.69 "Hg (Jul 16, 3:31 am)
Average60 °F78%29.95 "Hg
* Reported Jul 10 9:00 pm — Jul 25 9:00 pm, Camrose. Weather by CustomWeather, © 2017

Note: Actual official high and low records may vary slightly from our data, if they occured in-between our weather recording intervals... More about our weather records

Advertising

Camrose Weather History for the Previous 24 Hours

Scroll right to see more
 ConditionsComfort  
Time TempWeatherWind HumidityBarometerVisibility
9:00 pm
Tue, Jul 25
66 °FPartly sunny.3 mph78%30.05 "Hg15 mi
8:00 pm73 °FPartly sunny.3 mph57%30.05 "Hg15 mi
7:00 pm73 °FScattered clouds.5 mph47%30.05 "Hg15 mi
6:00 pm75 °FPartly sunny.5 mph41%30.06 "Hg15 mi
5:00 pm75 °FBroken clouds.6 mph44%30.06 "Hg15 mi
4:00 pm72 °FBroken clouds.5 mph53%30.07 "Hg15 mi
3:00 pm73 °FBroken clouds.12 mph50%30.07 "Hg15 mi
2:00 pm72 °FScattered clouds.14 mph50%30.06 "Hg15 mi
1:00 pm72 °FPartly sunny.9 mph61%30.06 "Hg15 mi
12:00 pm68 °FPartly sunny.8 mph64%30.07 "Hg15 mi
11:00 am64 °FPartly sunny.7 mph68%30.08 "Hg15 mi
10:00 am63 °FPartly sunny.5 mph68%30.08 "Hg15 mi
9:00 am59 °FPartly sunny.6 mph72%30.08 "Hg15 mi
8:00 am54 °FPartly sunny.7 mph82%30.09 "Hg15 mi
7:00 am50 °FPartly sunny.2 mph88%30.08 "Hg15 mi
6:00 am48 °FPartly sunny.3 mph87%30.07 "Hg15 mi
5:00 am48 °FPassing clouds.5 mph87%30.07 "Hg15 mi
4:00 am48 °FPassing clouds.7 mph94%30.06 "Hg15 mi
3:00 am48 °FPassing clouds.8 mph94%30.05 "Hg15 mi
2:00 am48 °FPassing clouds.6 mph94%30.05 "Hg15 mi
1:00 am50 °FPassing clouds.9 mph94%30.03 "Hg15 mi
12:00 am52 °FPassing clouds.9 mph88%30.03 "Hg15 mi
11:00 pm
Mon, Jul 24
52 °FPassing clouds.9 mph94%30.01 "Hg15 mi
Weather by CustomWeather, © 2017

See weather overviewHow to use our weather pages